AA6MV Weather Reports


time (UTC)temp
F
wind
direction
speed
knots
gust
knots
rain 1hr
in
rain 24hr
in
rain mn
in
humidity
%
barometer
mb
20260508104551 53 39 0.0 0.0 0.00 0.00 0.00 42 1006.9
20260508101551 54 39 0.0 0.0 0.00 0.00 0.00 41 1006.7
20260508100049 54 40 0.0 0.0 0.00 0.00 0.00 40 1006.7
20260508094534 54 40 0.0 0.0 0.00 0.00 0.00 40 1006.7
20260508093030 55 39 0.0 0.0 0.00 0.00 0.00 38 1006.8
20260508091528 57 39 0.0 0.0 0.00 0.00 0.00 37 1006.9
20260508084506 59 39 0.0 0.0 0.00 0.00 0.00 35 1006.9
20260508083004 59 31 0.0 0.0 0.00 0.00 0.00 35 1007.1
20260508074535 60 153 0.0 0.0 0.00 0.00 0.00 35 1007.6
20260508073030 60 154 0.0 0.0 0.00 0.00 0.00 34 1007.7
20260508071532 60 126 0.0 0.0 0.00 0.00 0.00 34 1008.0
20260508064534 60 118 0.0 0.0 0.00 0.00 0.00 34 1007.9
20260508063033 61 118 0.0 0.0 0.00 0.00 0.00 33 1007.8
20260508061640 61 118 0.0 0.0 0.00 0.00 0.00 33 1007.7
20260508054541 61 118 0.0 0.0 0.00 0.00 0.00 32 1007.8
20260508053044 62 117 0.0 0.0 0.00 0.00 0.00 31 1008.1
20260508051531 63 112 0.0 0.0 0.00 0.00 0.00 31 1008.1
20260508044624 64 112 0.0 0.0 0.00 0.00 0.00 30 1008.0
20260508043012 65 101 0.0 0.0 0.00 0.00 0.00 29 1008.1
20260508041507 66 102 0.0 0.9 0.00 0.00 0.00 28 1007.7
20260508034538 67 139 0.0 3.5 0.00 0.00 0.00 25 1007.5
20260508033141 67 107 0.0 0.0 0.00 0.00 0.00 24 1007.6
20260508031525 67 99 0.0 0.9 0.00 0.00 0.00 23 1007.2
20260508024553 67 7 0.0 0.0 0.00 0.00 0.00 24 1006.5
20260508023059 68 7 0.0 0.0 0.00 0.00 0.00 21 1005.8
20260508021553 69 7 0.0 0.0 0.00 0.00 0.00 19 1005.4
20260508020145 70 7 0.0 0.0 0.00 0.00 0.00 19 1005.0
20260508014554 71 7 0.0 3.5 0.00 0.00 0.00 18 1004.7
20260508013053 71 10 2.6 5.2 0.00 0.00 0.00 17 1004.4
20260508011604 72 6 2.6 7.8 0.00 0.00 0.00 16 1004.5
20260508010153 73 360 3.5 8.7 0.00 0.00 0.00 15 1004.3
20260508004535 74 7 3.5 8.7 0.00 0.00 0.00 15 1004.2
20260508003035 76 359 0.9 7.8 0.00 0.00 0.00 14 1004.1
20260508001533 78 26 5.2 11.3 0.00 0.00 0.00 12 1003.8
20260508000133 79 42 2.6 11.3 0.00 0.00 0.00 13 1003.6
20260507234517 80 312 0.0 3.5 0.00 0.00 0.00 12 1003.5
20260507233007 79 14 0.0 5.2 0.00 0.00 0.00 12 1003.7
20260507231505 78 291 0.0 0.9 0.00 0.00 0.00 13 1003.7
20260507224530 79 221 0.0 8.7 0.00 0.00 0.00 13 1003.9
20260507223027 80 360 0.0 5.2 0.00 0.00 0.00 12 1004.0
20260507221530 81 17 0.0 0.0 0.00 0.00 0.00 12 1004.1
20260507220124 81 260 10.4 28.7 0.00 0.00 0.00 12 1003.8
20260507214559 80 272 0.9 8.7 0.00 0.00 0.00 12 1004.5
20260507213050 79 316 5.2 10.4 0.00 0.00 0.00 13 1004.6
20260507211546 79 266 3.5 7.0 0.00 0.00 0.00 14 1005.0
20260507210149 79 292 2.6 12.2 0.00 0.00 0.00 14 1005.3
20260507204540 79 257 5.2 10.4 0.00 0.00 0.00 13 1005.4
20260507203041 79 1 1.7 7.8 0.00 0.00 0.00 14 1005.6
20260507201538 79 324 0.9 7.8 0.00 0.00 0.00 15 1005.7
20260507194530 77 344 2.6 7.0 0.00 0.00 0.00 16 1006.1
20260507193032 77 221 6.1 13.9 0.00 0.00 0.00 16 1006.5
20260507191529 77 236 4.3 11.3 0.00 0.00 0.00 17 1006.7
20260507190022 76 265 6.1 11.3 0.00 0.00 0.00 17 1006.9
20260507184539 76 276 7.8 13.0 0.00 0.00 0.00 17 1007.1
20260507183029 76 287 6.1 12.2 0.00 0.00 0.00 18 1007.3
20260507181527 76 250 7.0 11.3 0.00 0.00 0.00 17 1007.7
20260507180035 75 288 6.1 12.2 0.00 0.00 0.00 17 1007.8
20260507174526 74 252 6.1 13.0 0.00 0.00 0.00 18 1008.0
20260507173017 74 232 4.3 10.4 0.00 0.00 0.00 16 1008.2
20260507171505 74 282 0.0 6.1 0.00 0.00 0.00 17 1008.2
20260507170114 73 210 0.0 10.4 0.00 0.00 0.00 18 1008.3
20260507164611 72 262 1.7 6.1 0.00 0.00 0.00 19 1008.2
20260507163004 71 301 2.6 6.1 0.00 0.00 0.00 19 1008.3
20260507160152 69 40 0.9 3.5 0.00 0.00 0.00 25 1008.7
20260507154540 66 53 0.0 0.9 0.00 0.00 0.00 28 1008.8
20260507153039 65 96 0.0 3.5 0.00 0.00 0.00 28 1009.1
20260507151632 64 83 0.0 3.5 0.00 0.00 0.00 30 1009.1
20260507150019 63 49 0.0 0.0 0.00 0.00 0.00 31 1009.3
20260507144519 61 49 0.0 0.0 0.00 0.00 0.00 33 1009.5
20260507143012 59 11 0.0 0.0 0.00 0.00 0.00 35 1009.7
20260507141513 57 11 0.0 0.0 0.00 0.00 0.00 39 1009.8
20260507140022 54 11 0.0 0.0 0.00 0.00 0.00 42 1009.9
20260507134524 50 268 0.0 0.0 0.00 0.00 0.00 49 1009.8
20260507133009 47 267 0.0 0.0 0.00 0.00 0.00 54 1009.8
20260507131538 46 267 0.0 0.0 0.00 0.00 0.00 52 1009.6
20260507130033 46 268 0.0 0.0 0.00 0.00 0.00 49 1009.5
20260507124540 46 268 0.0 0.0 0.00 0.00 0.00 49 1009.4
20260507123139 46 267 0.0 0.0 0.00 0.00 0.00 48 1009.2
20260507121551 47 268 0.0 0.0 0.00 0.00 0.00 47 1009.2
20260507120049 47 265 0.0 0.0 0.00 0.00 0.00 45 1009.1
20260507114549 47 262 0.0 0.0 0.00 0.00 0.00 45 1009.2
20260507113147 47 259 0.0 0.0 0.00 0.00 0.00 45 1009.2
20260507111522 47 257 0.0 0.0 0.00 0.00 0.00 45 1009.4
20260507110017 47 250 0.0 0.0 0.00 0.00 0.00 44 1009.2